Flag for Germany Weather past 2 weeks in Duisburg, North Rhine-Westphalia, Germany

Now
39 °F

Passing clouds.


Feels Like: 32 °F
Forecast: 35 / 40 °F
Wind: 12 mph from South

Location: Duesseldorf

Current Time: Jan 28, 2015 at 6:24:14 AM

Latest Report: Jan 28, 2015 at 5:50 AM


Visibility: N/A

Pressure: 30.01 "Hg

Humidity: 93%

Dew point: 37 °F

Location of DuisburgLocation

Historic Weather in Duisburg — Graph

°F

Duisburg temperature yesterday

Maximum temperature yesterday: 43 °F (at 2:20 PM)
Minimum temperature yesterday: 36 °F (at 3:50 AM)
Average temperature yesterday: 39 °F

Past Weeks' High & Low Weather Summary

 TemperatureHumidityPressure
High54 °F (Jan 13, 10:50 AM)100% (Jan 17, 8:20 AM)30.42 "Hg (Jan 17, 8:20 AM)
Low25 °F (Jan 25, 2:20 AM)52% (Jan 21, 1:20 PM)29.42 "Hg (Jan 15, 3:20 PM)
Average37 °F83%29.97 "Hg
* Reported Jan 13 5:20 AM — Jan 28 5:20 AM, Duisburg, Weather by CustomWeather, © 2014

Note: Actual official high and low records may vary slightly from our data, if they occured in-between our weather recording intervals... More about our weather records

Advertising

Duisburg weather history for previous 24 hours

 ConditionsComfort  
Time TempWeatherWind HumidityBarometerVisibility
5:20 AM
Jan 28
39 °FPassing clouds.10 mph93%30.01 "Hg6 mi
4:50 AM39 °FPassing clouds.10 mph93%30.04 "Hg5 mi
4:20 AM39 °FLight rain. Partly cloudy.10 mph93%30.04 "Hg4 mi
3:50 AM39 °FPassing clouds.9 mph93%30.07 "Hg4 mi
3:20 AM37 °FLow clouds.9 mph93%30.09 "Hg4 mi
2:50 AM37 °FPassing clouds.9 mph93%30.09 "Hg5 mi
2:20 AM37 °FPartly cloudy.10 mph93%30.09 "Hg6 mi
1:50 AM37 °FPassing clouds.9 mph93%30.12 "Hg6 mi
1:20 AM37 °FPassing clouds.8 mph100%30.15 "HgN/A
12:50 AM36 °FPassing clouds.8 mph93%30.15 "HgN/A
12:20 AM36 °FClear.9 mph93%30.15 "Hg10 mi
11:50 PM
Jan 27
36 °FPassing clouds.7 mph93%30.15 "HgN/A
11:20 PM36 °FPassing clouds.7 mph93%30.18 "HgN/A
10:50 PM39 °FPartly cloudy.6 mph93%30.18 "HgN/A
10:20 PM39 °FPassing clouds.6 mph93%30.18 "HgN/A
9:50 PM39 °FPassing clouds.7 mph93%30.18 "HgN/A
9:20 PM41 °FPartly cloudy.7 mph87%30.18 "HgN/A
8:50 PM41 °FPartly cloudy.7 mph87%30.18 "HgN/A
8:20 PM41 °FPassing clouds.7 mph87%30.18 "HgN/A
7:50 PM39 °FPassing clouds.6 mph93%30.18 "HgN/A
7:20 PM39 °FPartly cloudy.6 mph93%30.18 "HgN/A
6:50 PM39 °FPassing clouds.5 mph93%30.18 "HgN/A
6:20 PM39 °FPassing clouds.6 mph93%30.18 "HgN/A
5:50 PM39 °FPassing clouds.7 mph93%30.18 "HgN/A
5:20 PM41 °FSprinkles. Partly cloudy.7 mph87%30.18 "HgN/A
4:50 PM41 °FScattered showers. Broken clouds.7 mph81%30.18 "HgN/A
4:20 PM41 °FScattered showers. Broken clouds.7 mph87%30.18 "HgN/A
3:50 PM41 °FSprinkles. Broken clouds.9 mph87%30.18 "HgN/A
3:20 PM41 °FSprinkles. Broken clouds.9 mph87%30.18 "HgN/A
2:50 PM43 °FBroken clouds.13 mph81%30.18 "HgN/A
2:20 PM43 °FBroken clouds.10 mph87%30.18 "HgN/A
1:50 PM41 °FBroken clouds.10 mph87%30.18 "HgN/A
1:20 PM41 °FBroken clouds.9 mph87%30.18 "HgN/A
12:50 PM41 °FSprinkles. Broken clouds.10 mph87%30.18 "HgN/A
12:20 PM41 °FSprinkles. Broken clouds.10 mph87%30.18 "HgN/A
11:50 AM41 °FScattered showers. Broken clouds.8 mph93%30.18 "HgN/A
11:20 AM39 °FPartly sunny.7 mph93%30.21 "HgN/A
10:50 AM39 °FSprinkles. Partly sunny.9 mph93%30.21 "HgN/A
10:20 AM39 °FPartly sunny.8 mph93%30.21 "HgN/A
9:50 AM37 °FPassing clouds.9 mph93%30.18 "HgN/A
9:20 AM37 °FPartly sunny.9 mph93%30.18 "HgN/A
8:50 AM37 °FSprinkles. Broken clouds.12 mph93%30.18 "HgN/A
8:20 AM37 °FPartly sunny.10 mph87%30.18 "HgN/A
7:50 AM37 °FPassing clouds.9 mph87%30.18 "HgN/A
7:20 AM36 °FPassing clouds.9 mph93%30.15 "HgN/A
6:50 AM37 °FPassing clouds.9 mph87%30.18 "HgN/A
6:20 AM37 °FPassing clouds.8 mph87%30.18 "HgN/A
Weather by CustomWeather, © 2014

See weather overviewHow to use our weather pages